Regional Weather Roundup
Issued by NWS

Home | Current Version | Previous Version | Graphics & Text | Print | Product List | Glossary On
Versions: 1 2 3 4 5 6 7 8 9 10 11 12 13 14 15 16 17 18 19 20 21 22 23 24 25 26 27 28 29 30 31 32 33 34 35 36 37 38 39 40 41 42 43 44 45 46 47 48 49 50
000
ASUS44 KMEG 241210
RWRTN
TENNESSEE HOURLY STATE WEATHER ROUNDUP
NATIONAL WEATHER SERVICE MEMPHIS TN
700 AM CDT THU JUL 24 2014

TNZ002-004-019-021-049-052-054-088>092-241300-
WEST TENNESSEE

CITY           SKY/WX    TMP DP  RH WIND       PRES   REMARKS
MEMPHIS INTL   PTCLDY    73  68  84 NE8       30.03R
NWS MEMPHIS      N/A     71 N/A N/A MISG        N/A
JACKSON        SUNNY     69  65  86 N8        30.03R
DYERSBURG      SUNNY     66  54  63 N8        30.06R
UNION CITY     SUNNY     61  57  88 N8        30.05R
PARIS          SUNNY     61  57  86 N8        30.04R
LEXINGTON      PTSUNNY   70  66  88 NW3       30.01R
$$

TNZ008-025-027-028-033-062-065-066-241300-
NORTH MIDDLE TENNESSEE

CITY           SKY/WX    TMP DP  RH WIND       PRES   REMARKS
NASHVILLE      CLOUDY    73  69  87 N10       29.99R
DICKSON          N/A     70  66  88 N8        30.01R
PORTLAND       CLOUDY    70  64  83 N7        29.99
CLARKSVILLE    PTSUNNY   68  60  75 NW9       30.01R
LEBANON        CLOUDY    71  69  93 CALM      29.98R
SMYRNA         CLOUDY    73  73 100 CALM      30.00R FOG
COOKEVILLE     CLOUDY    72  70  94 CALM      29.99S
LIVINGSTON     CLOUDY    68  68 100 CALM      30.00R
GALLATIN       PTSUNNY   73  71  93 N9        30.00R
CROSSVILLE     CLOUDY    69  66  90 NW5       30.03R FOG
$$

TNZ061-075-076-078-094-096-097-241300-
SOUTH MIDDLE TENNESSEE

CITY           SKY/WX    TMP DP  RH WIND       PRES   REMARKS
LEWISBURG      CLOUDY    71  69  93 N3        30.00R
FAYETTEVILLE   CLOUDY    72  70  94 CALM      30.00S
TULLAHOMA      CLOUDY    70  70 100 CALM      30.02R
WINCHESTER     CLOUDY    72  72 100 CALM      30.01R
MCMINNVILLE    MOSUNNY   72  72 100 CALM      30.00R
COLUMBIA       CLOUDY    72  70  94 CALM      30.00R
SHELBYVILLE    CLOUDY    72  72 100 NW5       30.01R
$$

TNZ017-018-042-046-047-241300-
NORTHEAST TENNESSEE

CITY           SKY/WX    TMP DP  RH WIND       PRES   REMARKS
TRI CITIES     CLOUDY    70  67  90 CALM      29.99S
ELIZABETHTON   MOSUNNY   66  66 100 CALM      30.00S
$$

TNZ012-013-036-069-073-074-241300-
CENTRAL EAST TENNESSEE

CITY           SKY/WX    TMP DP  RH WIND       PRES   REMARKS
KNOXVILLE      CLOUDY    73  70  90 SW8       29.97S
OAK RIDGE      CLOUDY    72  70  93 CALM      29.98S
GATLINBURG     PTSUNNY   70  68  94 CALM      29.98R
MORRISTOWN     MOSUNNY   72  72 100 SW5       29.99S
$$

TNZ083-085-099-241300-
SOUTHEAST TENNESSEE

CITY           SKY/WX    TMP DP  RH WIND       PRES   REMARKS
CHATTANOOGA    PTSUNNY   74  70  87 CALM      29.99R
$$

SKY/WX REPORTED AS FAIR MEANS FEW OR NO CLOUDS BELOW
12 THOUSAND FEET.




USA.gov is the U.S. government's official web portal to all federal, state and local government web resources and services.